Location: Ch�risy
(50.2331°N, 2.9131°E)
Time: 02:36:55
(UTC+00:00)

H-2A R/B - Pass Details

Date: 17 January 2021
Orbit: 734 x 836 km, 98.2° (Epoch: 24 February)

Event Time Altitude Azimuth Distance (km) Brightness Sun altitude
Rises 19:45:04 0° 206° (SSW) 3,164 5.4 -32.6°
Reaches altitude 10° 19:47:53 10° 222° (SW) 2,257 4.8 -33.0°
Maximum altitude 19:51:33 21° 270° (W) 1,669 4.4 -33.6°
Drops below altitude 10° 19:55:19 10° 319° (NW) 2,308 5.0 -34.2°
Sets 19:58:14 0° 335° (NNW) 3,259 5.7 -34.7°
